When you browse on this site, cookies collect data to enhance your experience and personalize the content and advertising you see.
Visit our Privacy Policy to learn more. By continuing to use the site, you agree to this use of cookies and data.
  • In Hungary
  • List of Countries
  • For 7 days
  • Water Temperature
  • Satellite Maps
  • Weather Map
  • News
  • Weather Widgets
  • user-avatar
    Login

    Hourly Weather Opole Lubelskie

    Today, 18 November, Sunday

    Time Temperature Precipitation Wind Pressure Humidity
    00:00 0°C° 0 mm 1 mps 763 mmHg 50%
    01:00 0°C° 0 mm 1 mps 762 mmHg 50%
    02:00 0°C° 0 mm 1 mps 762 mmHg 49%
    03:00 -1°C° 0 mm 0 mps 761 mmHg 49%
    04:00 -1°C° 0 mm 0 mps 761 mmHg 48%
    05:00 -1°C° 0 mm 1 mps 760 mmHg 48%
    06:00 -1°C° 0 mm 1 mps 760 mmHg 48%
    07:00 -3°C° 0 mm 2 mps 759 mmHg 45%
    08:00 -2°C° 0 mm 2 mps 759 mmHg 41%
    09:00 -1°C° 0 mm 2 mps 758 mmHg 36%
    10:00 +1°C° 0 mm 2 mps 758 mmHg 32%
    11:00 +1°C° 0.1 mm 2 mps 757 mmHg 39%
    12:00 +1°C° 0.1 mm 2 mps 756 mmHg 47%
    13:00 -2°C° 0 mm 2 mps 756 mmHg 53%
    14:00 -2°C° 0.3 mm 2 mps 755 mmHg 62%
    15:00 -2°C° 0.3 mm 2 mps 755 mmHg 72%
    16:00 0°C° 0.3 mm 1 mps 754 mmHg 81%
    17:00 0°C° 0.2 mm 1 mps 754 mmHg 83%
    18:00 0°C° 0.2 mm 1 mps 754 mmHg 86%
    19:00 0°C° 0.2 mm 1 mps 754 mmHg 88%
    20:00 0°C° 0.1 mm 1 mps 754 mmHg 90%
    21:00 0°C° 0.1 mm 1 mps 753 mmHg 91%
    22:00 0°C° 0.1 mm 1 mps 753 mmHg 92%
    23:00 -1°C° 0.1 mm 2 mps 753 mmHg 93%

    Tomorrow, 19 November, Monday

    Time Temperature Precipitation Wind Pressure Humidity
    00:00 -1°C° 0.1 mm 2 mps 753 mmHg 93%
    01:00 -1°C° 0.1 mm 2 mps 753 mmHg 93%
    02:00 -1°C° 0.1 mm 3 mps 753 mmHg 93%
    03:00 -1°C° 0.1 mm 3 mps 753 mmHg 92%
    04:00 -1°C° 0.1 mm 3 mps 753 mmHg 92%
    05:00 -1°C° 0 mm 3 mps 753 mmHg 91%
    06:00 -2°C° 0 mm 3 mps 753 mmHg 90%
    07:00 -2°C° 0 mm 3 mps 753 mmHg 89%
    08:00 -2°C° 0 mm 4 mps 753 mmHg 84%
    09:00 -2°C° 0 mm 4 mps 753 mmHg 79%
    10:00 -1°C° 0 mm 5 mps 754 mmHg 74%
    11:00 -1°C° 0 mm 5 mps 754 mmHg 72%
    12:00 0°C° 0 mm 5 mps 754 mmHg 69%
    13:00 0°C° 0 mm 5 mps 754 mmHg 67%
    14:00 -1°C° 0 mm 5 mps 754 mmHg 71%
    15:00 -1°C° 0 mm 5 mps 754 mmHg 75%
    16:00 -2°C° 0 mm 4 mps 754 mmHg 78%
    17:00 -2°C° 0 mm 5 mps 754 mmHg 79%
    18:00 -2°C° 0 mm 5 mps 754 mmHg 80%
    19:00 -2°C° 0 mm 5 mps 755 mmHg 80%
    20:00 -2°C° 0 mm 5 mps 755 mmHg 81%
    21:00 -2°C° 0 mm 5 mps 755 mmHg 82%
    22:00 -4°C° 0 mm 5 mps 755 mmHg 84%
    23:00 -4°C° 0 mm 5 mps 755 mmHg 84%

    Day after tomorrow, 20 November, Tuesday

    Time Temperature Precipitation Wind Pressure Humidity
    00:00 -4°C° 0 mm 5 mps 755 mmHg 84%
    01:00 -5°C° 0 mm 5 mps 755 mmHg 84%
    02:00 -5°C° 0 mm 5 mps 755 mmHg 85%
    03:00 -5°C° 0 mm 5 mps 755 mmHg 85%
    04:00 -5°C° 0 mm 5 mps 755 mmHg 85%
    05:00 -5°C° 0 mm 5 mps 755 mmHg 85%
    06:00 -5°C° 0 mm 5 mps 755 mmHg 85%
    07:00 -5°C° 0 mm 5 mps 754 mmHg 85%
    08:00 -5°C° 0 mm 5 mps 754 mmHg 80%
    09:00 -4°C° 0 mm 6 mps 754 mmHg 75%
    10:00 -3°C° 0 mm 6 mps 754 mmHg 70%
    11:00 -2°C° 0 mm 6 mps 754 mmHg 68%
    12:00 -2°C° 0 mm 6 mps 753 mmHg 66%
    13:00 -1°C° 0 mm 7 mps 753 mmHg 64%
    14:00 -2°C° 0 mm 6 mps 752 mmHg 67%
    15:00 -2°C° 0 mm 6 mps 752 mmHg 70%
    16:00 -3°C° 0 mm 6 mps 752 mmHg 73%
    17:00 -3°C° 0 mm 6 mps 752 mmHg 73%
    18:00 -3°C° 0 mm 6 mps 752 mmHg 74%
    19:00 -3°C° 0 mm 7 mps 752 mmHg 74%
    20:00 -3°C° 0 mm 7 mps 752 mmHg 75%
    21:00 -3°C° 0 mm 6 mps 752 mmHg 75%
    22:00 -3°C° 0 mm 6 mps 752 mmHg 76%
    23:00 -4°C° 0 mm 6 mps 752 mmHg 76%

    21 November, Wednesday

    Time Temperature Precipitation Wind Pressure Humidity
    00:00 -4°C° 0 mm 6 mps 752 mmHg 77%
    01:00 -4°C° 0 mm 6 mps 753 mmHg 78%
    02:00 -4°C° 0.1 mm 6 mps 752 mmHg 79%
    03:00 -4°C° 0.1 mm 6 mps 752 mmHg 81%
    04:00 -4°C° 0.1 mm 6 mps 752 mmHg 82%
    05:00 -4°C° 0 mm 6 mps 753 mmHg 83%
    06:00 -4°C° 0 mm 6 mps 753 mmHg 84%
    07:00 -4°C° 0 mm 5 mps 753 mmHg 85%
    08:00 -4°C° 0 mm 5 mps 753 mmHg 83%
    09:00 -4°C° 0 mm 5 mps 754 mmHg 82%
    10:00 -2°C° 0 mm 5 mps 754 mmHg 80%
    11:00 -2°C° 0 mm 5 mps 754 mmHg 78%
    12:00 -2°C° 0 mm 5 mps 754 mmHg 76%
    13:00 -1°C° 0 mm 5 mps 754 mmHg 75%
    14:00 -2°C° 0 mm 5 mps 754 mmHg 76%
    15:00 -2°C° 0 mm 5 mps 754 mmHg 78%
    16:00 -4°C° 0 mm 5 mps 754 mmHg 80%
    17:00 -4°C° 0 mm 5 mps 755 mmHg 81%
    18:00 -3°C° 0 mm 4 mps 755 mmHg 82%
    19:00 -4°C° 0 mm 4 mps 755 mmHg 82%
    20:00 -4°C° 0 mm 4 mps 755 mmHg 83%
    21:00 -4°C° 0 mm 4 mps 756 mmHg 83%
    22:00 -4°C° 0 mm 4 mps 756 mmHg 84%
    23:00 -4°C° 0 mm 4 mps 756 mmHg 84%

    22 November, Thursday

    Time Temperature Precipitation Wind Pressure Humidity
    00:00 -4°C° 0 mm 4 mps 756 mmHg 85%
    01:00 -4°C° 0 mm 4 mps 756 mmHg 85%
    02:00 -4°C° 0 mm 4 mps 756 mmHg 86%
    03:00 -4°C° 0 mm 4 mps 756 mmHg 86%
    04:00 -5°C° 0 mm 4 mps 756 mmHg 87%
    05:00 -5°C° 0 mm 4 mps 757 mmHg 87%
    06:00 -5°C° 0 mm 4 mps 757 mmHg 87%
    07:00 -5°C° 0 mm 4 mps 757 mmHg 87%
    08:00 -4°C° 0 mm 4 mps 757 mmHg 83%
    09:00 -3°C° 0 mm 4 mps 758 mmHg 78%
    10:00 -2°C° 0 mm 4 mps 758 mmHg 73%
    11:00 -1°C° 0 mm 4 mps 758 mmHg 71%
    12:00 -1°C° 0 mm 4 mps 758 mmHg 68%
    13:00 0°C° 0 mm 4 mps 758 mmHg 66%
    14:00 -1°C° 0 mm 4 mps 758 mmHg 71%
    15:00 -1°C° 0 mm 3 mps 758 mmHg 76%
    16:00 -2°C° 0 mm 3 mps 758 mmHg 82%
    17:00 -2°C° 0 mm 3 mps 758 mmHg 83%
    18:00 -4°C° 0 mm 3 mps 759 mmHg 84%
    19:00 -4°C° 0 mm 3 mps 759 mmHg 86%
    20:00 -4°C° 0 mm 3 mps 759 mmHg 86%
    21:00 -4°C° 0 mm 3 mps 759 mmHg 86%
    22:00 -4°C° 0 mm 3 mps 760 mmHg 86%
    23:00 -4°C° 0 mm 3 mps 760 mmHg 86%

    23 November, Friday

    Time Temperature Precipitation Wind Pressure Humidity
    00:00 -4°C° 0 mm 3 mps 760 mmHg 85%
    01:00 -4°C° 0 mm 3 mps 760 mmHg 85%
    02:00 -5°C° 0 mm 3 mps 760 mmHg 85%
    03:00 -5°C° 0 mm 3 mps 760 mmHg 85%
    04:00 -4°C° 0 mm 2 mps 760 mmHg 85%
    05:00 -4°C° 0 mm 2 mps 760 mmHg 85%
    06:00 -5°C° 0 mm 3 mps 760 mmHg 85%
    07:00 -5°C° 0 mm 3 mps 760 mmHg 85%
    08:00 -4°C° 0 mm 3 mps 760 mmHg 79%
    09:00 -2°C° 0 mm 3 mps 760 mmHg 74%
    10:00 -1°C° 0 mm 3 mps 760 mmHg 68%
    11:00 0°C° 0 mm 3 mps 760 mmHg 66%
    12:00 +1°C° 0 mm 3 mps 759 mmHg 64%
    13:00 +1°C° 0 mm 3 mps 759 mmHg 62%
    14:00 0°C° 0 mm 3 mps 759 mmHg 66%
    15:00 -1°C° 0 mm 3 mps 758 mmHg 71%
    16:00 -2°C° 0 mm 2 mps 758 mmHg 76%
    17:00 -2°C° 0 mm 2 mps 758 mmHg 77%
    18:00 -2°C° 0 mm 2 mps 757 mmHg 78%
    19:00 -2°C° 0 mm 2 mps 757 mmHg 80%
    20:00 -2°C° 0 mm 2 mps 757 mmHg 82%
    21:00 -2°C° 0 mm 2 mps 756 mmHg 85%
    22:00 -2°C° 0 mm 2 mps 756 mmHg 87%
    23:00 -1°C° 0 mm 2 mps 756 mmHg 89%
    Show more